Houma, LA

8:03 PM CDT on April 24, 2017 (GMT -0500)
Houma-terrebonne

Weather History for KHUM - April, 2014

Change the Weather History Date:

Saturday, April 12, 2014

  Actual Average Record
Temperature  
Mean Temperature 68 °F -  
Max Temperature 78 °F 76 °F 89 °F (1965)
Min Temperature 59 °F 57 °F 39 °F (1951)
Cooling Degree Days 4    
Growing Degree Days 18 (Base 50)    
Moisture  
Dew Point 62 °F    
Average Humidity 81    
Maximum Humidity 100    
Minimum Humidity 57    
Precipitation  
Precipitation 0.00 in - - ()
Sea Level Pressure  
Sea Level Pressure 30.08 in    
Wind  
Wind Speed 4 mph (SE)    
Max Wind Speed 13 mph    
Max Gust Speed -    
Visibility 5 miles    
Events Fog    
Averages and records for this station are not official NWS values.
T = Trace of Precipitation, MM = Missing Value Source: NWS Daily Summary

Daily Weather History Graph

Daily Weather History Graph

Search for Another Location

Airport or City:

Trip Planner

Search our weather history database for the weather conditions in past years. The results will help you decide how hot, cold, wet, or windy it might be!

Date:

Astronomy

Apr. 12, 2014 Rise Set
Actual Time 6:39 AM CDT 7:27 PM CDT
Civil Twilight 6:15 AM CDT 7:52 PM CDT
Nautical Twilight 5:46 AM CDT 8:20 PM CDT
Astronomical Twilight 5:17 AM CDT 8:50 PM CDT
Moon 5:16 PM CDT (4/12) 4:54 AM CDT (4/12)
Length of Visible Light 13h 36m
Length of Day
12h 48m
Waxing Gibbous, 93% of the Moon is Illuminated
Apr 12
Waxing Gibbous
Apr 15
Full
Apr 22
Last Quarter
Apr 29
New
May 6
First Quarter

Hourly Weather History & Observations

Time (CDT) Temp. Dew Point Humidity Pressure Visibility Wind Dir Wind Speed Gust Speed Precip Events Conditions
12:15 AM 61.2 °F 58.6 °F 91% 30.12 in 5.0 mi ESE 3.5 mph - N/A   Mist
12:35 AM 64.4 °F 62.2 °F 93% 30.12 in 7.0 mi SE 4.6 mph - N/A   Unknown
12:55 AM 65.3 °F 62.8 °F 92% 30.11 in 7.0 mi SE 3.5 mph - N/A   Unknown
1:15 AM 65.8 °F 62.6 °F 89% 30.11 in 7.0 mi SE 3.5 mph - N/A   Unknown
1:35 AM 64.8 °F 61.7 °F 90% 30.10 in 7.0 mi SE 3.5 mph - N/A   Unknown
1:55 AM 63.5 °F 60.3 °F 89% 30.10 in 5.0 mi ESE 3.5 mph - N/A   Mist
2:15 AM 63.0 °F 60.4 °F 91% 30.09 in 4.0 mi ESE 3.5 mph - N/A   Mist
2:35 AM 62.6 °F 59.9 °F 91% 30.09 in 1.5 mi ESE 3.5 mph - N/A   Mist
2:55 AM 61.3 °F 59.0 °F 92% 30.09 in 0.2 mi Calm Calm - N/A Fog Fog
3:15 AM 60.8 °F 58.5 °F 92% 30.09 in 0.2 mi Calm Calm - N/A Fog Fog
3:35 AM 60.3 °F 57.9 °F 92% 30.08 in 0.2 mi East 3.5 mph - N/A Fog Fog
3:55 AM 59.9 °F 57.6 °F 92% 30.08 in 1.8 mi Calm Calm - N/A   Mist
4:15 AM 59.9 °F 57.7 °F 93% 30.07 in 1.0 mi Calm Calm - N/A   Mist
4:35 AM 60.1 °F 58.1 °F 93% 30.07 in 0.2 mi ENE 4.6 mph - N/A Fog Fog
4:55 AM 61.0 °F 59.0 °F 93% 30.08 in 0.2 mi Calm Calm - N/A Fog Fog
5:15 AM 59.9 °F 57.9 °F 93% 30.08 in 0.2 mi Calm Calm - N/A Fog Fog
5:35 AM 59.5 °F 57.6 °F 93% 30.08 in 0.2 mi Calm Calm - N/A Fog Fog
5:50 AM 60.8 °F 57.2 °F 88% 30.09 in 0.2 mi Calm Calm - N/A   Overcast
5:55 AM 59.4 °F 57.4 °F 93% 30.08 in 0.2 mi Calm Calm - N/A Fog Fog
7:22 AM 60.8 °F 59.0 °F 94% 30.11 in 0.1 mi Calm Calm - N/A Fog Fog
7:50 AM 62.6 °F 62.6 °F 100% 30.11 in 0.2 mi Calm Calm - N/A Fog Fog
8:30 AM 68.0 °F 66.2 °F 94% 30.13 in 3.0 mi Calm Calm - N/A   Scattered Clouds
8:50 AM 69.8 °F 66.2 °F 88% 30.13 in 7.0 mi East 5.8 mph - N/A   Scattered Clouds
10:50 AM 78.8 °F 62.6 °F 57% 30.14 in 7.0 mi SE 11.5 mph - N/A   Mostly Cloudy
11:50 AM 78.8 °F 64.4 °F 61% 30.14 in 7.0 mi SSE 9.2 mph - N/A   Mostly Cloudy
12:50 PM 78.8 °F 64.4 °F 61% 30.14 in 7.0 mi SSE 12.7 mph - N/A   Mostly Cloudy
1:55 PM 78.8 °F 64.4 °F 61% 30.11 in 7.0 mi SE 11.5 mph - N/A   Mostly Cloudy
2:55 PM 78.8 °F 64.4 °F 61% 30.08 in 7.0 mi SE 9.2 mph - N/A   Mostly Cloudy
3:50 PM 78.8 °F 64.4 °F 61% 30.07 in 7.0 mi SSE 9.2 mph - N/A   Mostly Cloudy
4:50 PM 75.2 °F 62.6 °F 65% 30.06 in 7.0 mi SSE 8.1 mph - N/A   Mostly Cloudy
5:50 PM 75.2 °F 64.4 °F 69% 30.06 in 7.0 mi SE 12.7 mph - N/A   Mostly Cloudy
6:50 PM 75.2 °F 64.4 °F 69% 30.05 in 7.0 mi ESE 9.2 mph - N/A   Mostly Cloudy
7:15 PM 73.4 °F 62.2 °F 68% 30.03 in 7.0 mi ESE 10.4 mph - N/A   Unknown
7:35 PM 72.5 °F 62.1 °F 70% 30.04 in 7.0 mi ESE 8.1 mph - N/A   Unknown
7:55 PM 71.8 °F 61.9 °F 71% 30.04 in 10.0 mi ESE 8.1 mph - N/A   Unknown
8:15 PM 71.6 °F 61.9 °F 71% 30.04 in 10.0 mi ESE 6.9 mph - N/A   Unknown
8:35 PM 71.4 °F 61.7 °F 71% 30.04 in 7.0 mi ESE 10.4 mph - N/A   Unknown
8:55 PM 71.1 °F 61.7 °F 72% 30.05 in 10.0 mi SE 10.4 mph - N/A   Unknown
9:15 PM 71.2 °F 62.6 °F 74% 30.06 in 7.0 mi SE 6.9 mph - N/A   Unknown
9:35 PM 71.6 °F 62.8 °F 74% 30.06 in 10.0 mi SE 6.9 mph - N/A   Unknown
9:55 PM 70.7 °F 63.1 °F 77% 30.06 in 7.0 mi SE 6.9 mph - N/A   Unknown
10:15 PM 69.4 °F 62.8 °F 79% 30.06 in 10.0 mi ESE 6.9 mph - N/A   Unknown
10:35 PM 69.1 °F 62.6 °F 80% 30.04 in 10.0 mi SE 8.1 mph - N/A   Unknown
10:55 PM 69.3 °F 62.8 °F 80% 30.04 in 7.0 mi SE 8.1 mph - N/A   Unknown
11:15 PM 69.3 °F 63.0 °F 80% 30.04 in 7.0 mi SE 6.9 mph - N/A   Unknown
11:35 PM 68.9 °F 63.0 °F 81% 30.04 in 7.0 mi SE 5.8 mph - N/A   Unknown
11:55 PM 68.4 °F 63.0 °F 83% 30.04 in 7.0 mi SE 5.8 mph - N/A   Unknown